Weather in Yelan'-Chishma

Russia / Republic of Bashkortostan     54°10′57″N   53°49′33″E
temp.,
°C
wind,
m/s
gust,
m/s
humid.,
%
clouds,
%
prec.,
mm/h
press.,
hPa
HPBL,
m
15 may, sat
sat1523:00+20s334843 0.0 102337
02:00+18s335214 0.0 102337
05:00+17s33520 0.0 102330
08:00+20s39505 0.0 1023250
11:00+25ssw58325 0.0 1023650
14:00+28sw67253 0.0 10231349
17:00+28sw57275 0.0 10221609
20:00+24ssw34445 0.0 102166
16 may, sun
sun1623:00+20s34465 0.0 102142
02:00+19s33455 0.0 102123
05:00+17sse32450 0.0 102220
08:00+21s26470 0.0 1022164
11:00+26ssw46320 0.0 1021641
14:00+29ssw45235 0.0 10213037
17:00+29sw56265 0.0 10203216
20:00+25ssw22420 0.0 101930
17 may, mon
mon1723:00+21sse33415 0.0 101923
02:00+19ssw334625 0.0 102041
05:00+18s335372 0.0 102040
08:00+20ssw375264 0.1 1021217
11:00+26ssw453847 0.1 1021542
14:00+29wsw342897 0.0 10202429
17:00+29w442545 0.0 10203134
20:00+25wnw224159 0.0 101924
18 may, tue
tue1823:00+20ssw1151100 0.0 102014
02:00+19wsw2253100 0.0 102013
05:00+18s1154100 0.0 102011
08:00+22ssw2351100 0.0 1020116
11:00+26sw233969 0.0 1019685
14:00+29sw233163 0.0 10182718
17:00+28w333396 0.0 10171671
20:00+22ese4656100 0.0 1018142
19 may, wed
wed1923:00+20ese115398 0.0 101811
02:00+19s2254100 0.0 101814
05:00+18sse125770 0.0 101711
08:00+21ne11515 0.0 1017103
11:00+26ese33395 0.0 1017903
14:00+28se45335 0.0 10162668
17:00+27ese464221 0.0 1015962
20:00+22e355975 0.3 1016179